Flag for U.S.A. Weather past 2 weeks in Naples, Florida, U.S.A.

Now
77 °F

Passing clouds.


Feels Like: 78 °F
Forecast: 78 / 92 °F
Wind: 6 mph from Northeast

Location: Naples Municipal

Current Time: Aug 30, 2014 at 6:25:50 AM

Latest Report: Aug 30, 2014 at 5:53 AM


Visibility: 10 mi

Pressure: 30.06 "Hg

Humidity: 94%

Dew point: 75 °F

Location of NaplesLocation

Historic Weather in Naples — Graph

°F

Naples temperature yesterday

Maximum temperature yesterday: 93 °F (at 2:53 PM)
Minimum temperature yesterday: 76 °F (at 11:53 PM)
Average temperature yesterday: 82 °F

Past Weeks' High & Low Weather Summary

 TemperatureHumidityPressure
High94 °F (Aug 25, 1:53 PM)100% (Aug 15, 4:53 AM)30.12 "Hg (Aug 15, 4:53 AM)
Low73 °F (Aug 27, 5:53 AM)46% (Aug 26, 5:53 PM)29.73 "Hg (Aug 25, 3:53 PM)
Average84 °F81%29.97 "Hg
* Reported Aug 15 4:53 AM — Aug 30 4:53 AM, Naples, Weather by CustomWeather, © 2014

Note: Actual official high and low records may vary slightly from our data, if they occured in-between our weather recording intervals... More about our weather records

Advertising

Naples weather history for previous 24 hours

 ConditionsComfort  
Time TempWeatherWind HumidityBarometerVisibility
4:53 AM
Aug 30
77 °FClear.6 mph94%30.04 "Hg10 mi
3:53 AM77 °FClear.9 mph90%30.04 "Hg10 mi
2:53 AM76 °FClear.8 mph91%30.06 "Hg10 mi
1:53 AM76 °FClear.8 mph88%30.09 "Hg10 mi
12:53 AM77 °FClear.9 mph85%30.10 "Hg10 mi
11:53 PM
Aug 29
76 °FPassing clouds.7 mph91%30.10 "Hg10 mi
10:53 PM77 °FPassing clouds.9 mph85%30.09 "Hg10 mi
9:53 PM78 °FPassing clouds.6 mph82%30.06 "Hg10 mi
8:53 PM79 °FClear.7 mph79%30.05 "Hg10 mi
7:53 PM78 °FSunny.5 mph82%30.03 "Hg10 mi
6:53 PM78 °FSunny.5 mph90%30.00 "Hg10 mi
5:53 PM79 °FSunny.7 mphN/A30.01 "Hg10 mi
4:53 PM79 °FThunderstorms. Scattered clouds.10 mphN/A30.01 "Hg10 mi
2:53 PM93 °FPassing clouds.13 mph56%30.00 "Hg10 mi
1:53 PM92 °FPartly sunny.14 mph60%30.02 "Hg10 mi
12:53 PM92 °FScattered clouds.9 mph56%30.03 "Hg10 mi
11:53 AM91 °FScattered clouds.7 mph61%30.03 "Hg10 mi
10:53 AM89 °FScattered clouds.8 mph68%30.04 "Hg10 mi
9:53 AM87 °FScattered clouds.10 mph75%30.03 "Hg10 mi
8:53 AM84 °FSunny.7 mph85%30.03 "Hg10 mi
7:53 AM81 °FClear.7 mph91%30.02 "Hg10 mi
6:53 AM80 °FClear.7 mph90%29.99 "Hg10 mi
Weather by CustomWeather, © 2014

See weather overviewHow to use our weather pages